Location: Ballingbuur
(53.0000°N, 5.7667°E)
Time: 06:09:56
(UTC+00:00)

ATLAS 3B R/B - Pass Details

Date: 29 November 2020
Orbit: 1013 x 1182 km, 63.8° (Epoch: 08 January)

Event Time Altitude Azimuth Distance (km) Brightness Sun altitude
Exits shadow 05:17:52 27° 292° (WNW) 1,938 3.5 -18.2°
Maximum altitude 05:21:11 46° 238° (WSW) 1,452 3.1 -17.7°
Drops below altitude 10° 05:27:55 10° 168° (SSE) 3,012 5.4 -16.7°
Sets 05:30:46 0° 163° (SSE) 3,991 6.2 -16.3°
